Date String (YYYY-MM-DD hh:mm:ss) UTC,Instrument flags,Ambient pressure (hPa),Sample flow (lpm),Bypass flow (lpm),Sample temperature (°C),Ambient temperature (°C),ASC tube jacket temperature (°C),LED temperature (°C),Box temperature (°C),Sample RH (%),Span deviation,Mass concentration (μg/m³),Mass concentration (μg/m³),Mass concentration (μg/m³)
DateTimeUTC,F1_M11,P_M11,Q1_M11,Q2_M11,T1_M11,T2_M11,T3_M11,T4_M11,T5_M11,U1_M11,ZSPAN_M11,X0_M11,X2_M11,X1_M11
2022-05-12 08:00:00,,0819.4,4.99,0.00,29.4,28.7,00.0,38.3,31.2,25.4,-001.4,0028.27,0010.11,0006.80
2022-05-12 08:01:00,,0819.4,5.00,0.00,29.4,28.7,00.0,38.3,31.3,25.3,-001.3,0028.35,0010.19,0006.83
2022-05-12 08:02:00,,0819.4,4.99,0.00,29.4,28.7,00.0,38.3,31.3,25.2,-001.0,0029.15,0010.23,0006.87
2022-05-12 08:03:00,,0819.4,5.00,0.00,29.5,28.8,00.0,38.3,31.3,25.2,-000.8,0029.90,0010.22,0006.90
2022-05-12 08:04:00,,0819.4,5.00,0.00,29.5,28.8,00.0,38.3,31.3,25.1,-000.4,0031.16,0010.29,0006.92
2022-05-12 08:05:00,,0819.4,5.00,0.00,29.5,28.8,00.0,38.3,31.3,24.9,-000.2,0030.15,0010.36,0006.94
2022-05-12 08:06:00,,0819.4,5.01,0.00,29.5,28.8,00.0,38.4,31.3,24.9,-000.3,0029.61,0010.30,0006.94
2022-05-12 08:07:00,,0819.4,5.00,0.00,29.5,28.8,00.0,38.4,31.3,25.0,-000.3,0030.49,0010.38,0006.97
2022-05-12 08:08:00,,0819.5,5.00,0.00,29.5,28.8,00.0,38.4,31.4,25.0,-000.4,0030.32,0010.42,0006.97
2022-05-12 08:09:00,,0819.5,5.00,0.00,29.5,28.8,00.0,38.4,31.4,25.3,-000.6,0029.95,0010.47,0006.96
2022-05-12 08:10:00,,0819.5,5.00,0.00,29.5,28.8,00.0,38.4,31.4,25.4,-001.1,0030.66,0010.48,0006.97
2022-05-12 08:11:00,,0819.5,5.01,0.00,29.5,28.8,00.0,38.4,31.3,25.6,-001.4,0032.83,0010.51,0006.96
2022-05-12 08:12:00,,0819.5,5.01,0.00,29.5,28.8,00.0,38.4,31.4,25.8,-001.5,0034.32,0010.56,0006.97
2022-05-12 08:13:00,,0819.5,5.01,0.00,29.5,28.8,00.0,38.4,31.4,25.7,-001.7,0033.70,0010.57,0007.00
2022-05-12 08:14:00,,0819.5,5.00,0.00,29.5,28.8,00.0,38.4,31.4,25.8,-001.8,0032.59,0010.67,0007.02
2022-05-12 08:15:00,,0819.5,5.01,0.00,29.5,28.8,00.0,38.4,31.3,25.8,-001.9,0032.38,0010.70,0007.04
2022-05-12 08:16:00,,0819.4,5.00,0.00,29.5,28.8,00.0,38.5,31.3,26.0,-002.0,0031.89,0010.71,0007.06
2022-05-12 08:17:00,,0819.4,5.00,0.00,29.6,28.8,00.0,38.5,31.4,25.9,-001.8,0031.79,0010.79,0007.09
2022-05-12 08:18:00,,0819.4,5.00,0.00,29.6,28.8,00.0,38.5,31.4,25.8,-002.0,0031.07,0010.75,0007.09
2022-05-12 08:19:00,,0819.5,5.00,0.00,29.6,28.8,00.0,38.5,31.4,25.8,-001.8,0030.81,0010.65,0007.08
2022-05-12 08:20:00,,0819.5,5.00,0.00,29.6,28.9,00.0,38.5,31.4,25.9,-001.7,0031.25,0010.54,0007.08
2022-05-12 08:21:00,,0819.5,4.98,0.00,29.6,28.9,00.0,38.5,31.4,25.9,-001.6,0030.96,0010.52,0007.07
2022-05-12 08:22:00,,0819.4,5.00,0.00,29.6,28.9,00.0,38.5,31.4,25.8,-001.5,0029.30,0010.42,0007.06
2022-05-12 08:23:00,,0819.4,5.00,0.00,29.6,28.9,00.0,38.5,31.4,25.7,-001.6,0028.14,0010.37,0007.03
2022-05-12 08:24:00,,0819.4,5.00,0.00,29.6,28.9,00.0,38.5,31.4,25.8,-001.6,0028.23,0010.37,0007.02
2022-05-12 08:25:00,,0819.4,4.99,0.00,29.6,28.9,00.0,38.5,31.4,25.7,-001.5,0028.33,0010.36,0007.01
2022-05-12 08:26:00,,0819.4,5.00,0.00,29.6,28.9,00.0,38.5,31.5,25.7,-001.5,0027.92,0010.38,0007.02
2022-05-12 08:27:00,,0819.4,5.00,0.00,29.6,28.9,00.0,38.5,31.4,25.8,-001.7,0027.99,0010.38,0007.04
2022-05-12 08:28:00,,0819.4,4.99,0.00,29.6,28.9,00.0,38.5,31.4,25.8,-001.8,0027.32,0010.35,0007.04
2022-05-12 08:29:00,,0819.4,5.00,0.00,29.6,28.9,00.0,38.5,31.4,25.8,-001.4,0027.24,0010.32,0007.03
2022-05-12 08:30:00,,0819.4,4.99,0.00,29.6,28.9,00.0,38.5,31.4,25.7,-001.6,0027.76,0010.37,0007.05
2022-05-12 08:31:00,,0819.4,5.00,0.00,29.6,28.9,00.0,38.5,31.4,25.5,-001.5,0027.36,0010.49,0007.08
2022-05-12 08:32:00,,0819.3,5.00,0.00,29.6,28.9,00.0,38.5,31.4,25.5,-001.3,0027.33,0010.48,0007.09
2022-05-12 08:33:00,,0819.3,5.00,0.00,29.6,28.9,00.0,38.6,31.4,25.5,-001.1,0027.05,0010.45,0007.10
2022-05-12 08:34:00,,0819.2,5.00,0.00,29.6,28.9,00.0,38.6,31.4,25.5,-000.8,0026.89,0010.45,0007.11
2022-05-12 08:35:00,,0819.2,4.99,0.00,29.6,28.8,00.0,38.6,31.4,25.5,-000.8,0026.18,0010.41,0007.11
2022-05-12 08:36:00,,0819.2,4.99,0.00,29.6,28.9,00.0,38.6,31.4,25.5,-000.9,0025.36,0010.35,0007.12
2022-05-12 08:37:00,,0819.2,5.01,0.00,29.6,28.9,00.0,38.6,31.4,25.6,-000.8,0025.74,0010.27,0007.12
2022-05-12 08:38:00,,0819.2,5.00,0.00,29.6,28.9,00.0,38.6,31.3,25.7,-001.0,0026.18,0010.27,0007.12
2022-05-12 08:39:00,,0819.2,4.99,0.00,29.6,28.8,00.0,38.6,31.3,25.8,-001.4,0026.95,0010.33,0007.12
2022-05-12 08:40:00,,0819.2,5.00,0.00,29.5,28.8,00.0,38.5,31.3,25.9,-001.8,0026.72,0010.34,0007.13
2022-05-12 08:41:00,,0819.2,5.01,0.00,29.5,28.8,00.0,38.5,31.2,26.0,-001.7,0026.53,0010.34,0007.14
2022-05-12 08:42:00,,0819.2,4.99,0.00,29.5,28.7,00.0,38.5,31.2,25.9,-001.3,0028.43,0010.33,0007.14
2022-05-12 08:43:00,,0819.2,5.00,0.00,29.5,28.7,00.0,38.5,31.2,25.9,-001.2,0029.12,0010.44,0007.14
2022-05-12 08:44:00,,0819.2,5.00,0.00,29.5,28.8,00.0,38.5,31.3,25.9,-001.5,0029.01,0010.50,0007.15
2022-05-12 08:45:00,,0819.3,4.99,0.00,29.5,28.8,00.0,38.5,31.3,25.5,-001.8,0028.72,0010.49,0007.15
2022-05-12 08:46:00,,0819.3,5.00,0.00,29.5,28.8,00.0,38.5,31.3,25.5,-002.2,0029.29,0010.56,0007.17
2022-05-12 08:47:00,,0819.4,5.01,0.00,29.5,28.7,00.0,38.5,31.3,25.2,-002.0,0029.87,0010.61,0007.16
2022-05-12 08:48:00,,0819.4,4.99,0.00,29.5,28.8,00.0,38.5,31.2,25.3,-001.9,0029.81,0010.64,0007.17
2022-05-12 08:49:00,,0819.4,5.00,0.00,29.5,28.7,00.0,38.5,31.2,25.3,-001.7,0029.29,0010.66,0007.18
2022-05-12 08:50:00,,0819.4,5.02,0.00,29.5,28.8,00.0,38.5,31.2,25.2,-001.5,0028.80,0010.55,0007.19
2022-05-12 08:51:00,,0819.4,5.00,0.00,29.5,28.8,00.0,38.5,31.2,25.1,-001.2,0029.17,0010.62,0007.20
2022-05-12 08:52:00,,0819.4,5.00,0.00,29.5,28.8,00.0,38.5,31.3,25.2,-001.2,0028.95,0010.66,0007.21
2022-05-12 08:53:00,,0819.4,5.01,0.00,29.5,28.8,00.0,38.5,31.2,25.2,-001.5,0027.87,0010.67,0007.23
2022-05-12 08:54:00,,0819.4,4.99,0.00,29.5,28.8,00.0,38.5,31.2,25.3,-001.8,0029.03,0010.64,0007.25
2022-05-12 08:55:00,,0819.4,4.99,0.00,29.5,28.8,00.0,38.5,31.2,25.3,-001.5,0028.99,0010.62,0007.28
2022-05-12 08:56:00,,0819.4,5.00,0.00,29.5,28.8,00.0,38.5,31.2,25.3,-001.2,0029.39,0010.64,0007.30
2022-05-12 08:57:00,,0819.4,5.00,0.00,29.4,28.8,00.0,38.5,31.2,25.3,-000.7,0029.62,0010.65,0007.31
2022-05-12 08:58:00,,0819.4,5.01,0.00,29.5,28.8,00.0,38.4,31.2,25.3,-000.7,0029.42,0010.67,0007.33
2022-05-12 08:59:00,,0819.4,5.00,0.00,29.5,28.8,00.0,38.4,31.2,25.2,-000.8,0029.14,0010.70,0007.37
